Total_Precipitation_Accumulation
0.04 0.03 0.03 0.04 0.05 0.03 0.03 0.03 0.03 0.03 0.03 0.04 0.05 0.06 0.09 0.10 0.14 0.14 0.18 0.24 0.33 0.34 0.35 0.38 0.52 0.57 0.51 0.56 0.51 0.47 0.55 0.52 0.43 0.49 0.57 0.66 0.69 0.72 0.79 0.84 0.90 1.00
0.03 0.04 0.04 0.05 0.05 0.04 0.04 0.04 0.04 0.05 0.07 0.06 0.05 0.05 0.09 0.07 0.14 0.13 0.14 0.16 0.19 0.23 0.24 0.30 0.29 0.38 0.37 0.43 0.41 0.51 0.45 0.44 0.50 0.42 0.43 0.47 0.53 0.51 0.57 0.60 0.67 0.73
0.08 0.05 0.05 0.07 0.08 0.08 0.07 0.08 0.09 0.08 0.08 0.08 0.08 0.08 0.09 0.08 0.08 0.09 0.11 0.14 0.18 0.25 0.25 0.38 0.40 0.43 0.52 0.45 0.34 0.34 0.37 0.47 0.45 0.45 0.46 0.45 0.43 0.48 0.50 0.51 0.56 0.62
0.06 0.06 0.07 0.08 0.08 0.10 0.09 0.10 0.10 0.11 0.09 0.10 0.10 0.10 0.11 0.12 0.12 0.14 0.15 0.16 0.17 0.18 0.21 0.24 0.29 0.36 0.39 0.41 0.59 0.54 0.52 0.48 0.50 0.50 0.52 0.55 0.53 0.50 0.49 0.48 0.53 0.57
0.06 0.07 0.08 0.08 0.08 0.11 0.11 0.10 0.11 0.12 0.14 0.14 0.16 0.15 0.18 0.17 0.18 0.19 0.20 0.20 0.20 0.22 0.30 0.24 0.23 0.25 0.25 0.27 0.31 0.37 0.36 0.38 0.38 0.39 0.41 0.46 0.47 0.48 0.51 0.53 0.58 0.60
0.09 0.10 0.12 0.13 0.12 0.13 0.15 0.19 0.16 0.18 0.22 0.19 0.16 0.15 0.17 0.19 0.20 0.20 0.21 0.22 0.22 0.23 0.25 0.42 0.31 0.29 0.34 0.28 0.29 0.29 0.31 0.30 0.31 0.33 0.38 0.44 0.45 0.44 0.47 0.49 0.53 0.54
0.15 0.16 0.16 0.20 0.17 0.19 0.21 0.21 0.23 0.26 0.20 0.21 0.26 0.24 0.17 0.18 0.17 0.19 0.20 0.22 0.24 0.26 0.28 0.35 0.33 0.38 0.34 0.37 0.39 0.38 0.39 0.39 0.40 0.41 0.43 0.43 0.43 0.44 0.45 0.54 0.57 0.58
0.19 0.19 0.21 0.20 0.21 0.19 0.19 0.20 0.27 0.26 0.26 0.22 0.26 0.18 0.22 0.19 0.20 0.21 0.22 0.22 0.24 0.25 0.25 0.27 0.35 0.35 0.35 0.39 0.41 0.40 0.39 0.41 0.45 0.50 0.48 0.49 0.47 0.49 0.46 0.49 0.55 0.60
0.20 0.21 0.21 0.21 0.22 0.22 0.27 0.27 0.25 0.26 0.26 0.24 0.21 0.20 0.21 0.22 0.22 0.23 0.23 0.23 0.24 0.22 0.22 0.25 0.27 0.30 0.28 0.36 0.40 0.40 0.40 0.39 0.40 0.43 0.45 0.46 0.45 0.45 0.45 0.46 0.51 0.56
0.22 0.21 0.22 0.23 0.28 0.26 0.25 0.24 0.29 0.25 0.24 0.24 0.25 0.25 0.25 0.24 0.23 0.22 0.23 0.23 0.25 0.25 0.30 0.25 0.26 0.24 0.27 0.31 0.33 0.32 0.36 0.40 0.37 0.36 0.39 0.42 0.46 0.45 0.45 0.49 0.54 0.58
0.25 0.25 0.25 0.26 0.25 0.25 0.25 0.25 0.30 0.25 0.25 0.31 0.28 0.30 0.36 0.29 0.28 0.25 0.27 0.28 0.28 0.27 0.25 0.25 0.25 0.25 0.26 0.27 0.28 0.28 0.32 0.34 0.36 0.38 0.39 0.40 0.41 0.44 0.49 0.51 0.53 0.54
0.25 0.24 0.24 0.25 0.25 0.28 0.26 0.25 0.26 0.27 0.28 0.32 0.37 0.28 0.32 0.30 0.31 0.31 0.31 0.29 0.28 0.28 0.27 0.30 0.28 0.28 0.29 0.33 0.29 0.26 0.27 0.27 0.29 0.30 0.30 0.33 0.35 0.38 0.40 0.44 0.48 0.48
0.23 0.24 0.24 0.24 0.25 0.26 0.26 0.28 0.27 0.27 0.28 0.30 0.31 0.33 0.37 0.37 0.37 0.34 0.33 0.32 0.32 0.31 0.31 0.31 0.30 0.29 0.29 0.29 0.29 0.29 0.30 0.30 0.30 0.30 0.29 0.29 0.30 0.30 0.29 0.32 0.36 0.38
0.26 0.26 0.25 0.26 0.27 0.34 0.27 0.28 0.29 0.31 0.33 0.33 0.36 0.37 0.41 0.40 0.40 0.35 0.33 0.32 0.33 0.32 0.31 0.29 0.30 0.29 0.29 0.31 0.31 0.30 0.31 0.33 0.32 0.36 0.36 0.34 0.30 0.27 0.27 0.29 0.29 0.30
0.27 0.27 0.28 0.30 0.28 0.30 0.30 0.30 0.31 0.35 0.33 0.35 0.39 0.42 0.38 0.38 0.39 0.36 0.35 0.36 0.32 0.31 0.32 0.29 0.31 0.30 0.30 0.35 0.36 0.36 0.38 0.45 0.44 0.45 0.43 0.40 0.37 0.35 0.32 0.30 0.28 0.28
0.30 0.31 0.33 0.35 0.34 0.34 0.33 0.31 0.32 0.34 0.37 0.36 0.41 0.41 0.41 0.36 0.37 0.37 0.39 0.47 0.36 0.33 0.32 0.34 0.32 0.30 0.30 0.40 0.42 0.56 0.67 0.71 0.72 0.69 0.65 0.62 0.59 0.53 0.45 0.38 0.34 0.31
0.34 0.36 0.35 0.35 0.35 0.34 0.35 0.36 0.36 0.37 0.38 0.42 0.41 0.41 0.43 0.45 0.43 0.46 0.44 0.42 0.40 0.40 0.43 0.40 0.38 0.32 0.32 0.50 0.72 0.94 0.99 1.04 0.99 0.89 0.77 0.70 0.63 0.58 0.51 0.40 0.34 0.30
0.37 0.37 0.38 0.40 0.39 0.41 0.42 0.44 0.42 0.44 0.43 0.43 0.49 0.46 0.48 0.47 0.52 0.52 0.44 0.41 0.41 0.41 0.43 0.41 0.42 0.36 0.43 0.72 0.91 1.19 1.47 1.39 1.23 1.07 0.91 0.78 0.69 0.63 0.56 0.49 0.44 0.39
0.39 0.41 0.43 0.45 0.45 0.51 0.46 0.49 0.49 0.49 0.48 0.49 0.50 0.49 0.51 0.54 0.55 0.48 0.47 0.47 0.46 0.51 0.46 0.43 0.43 0.40 0.53 0.81 1.00 1.36 1.69 1.78 1.44 1.20 1.02 0.82 0.68 0.60 0.55 0.49 0.46 0.48
0.41 0.44 0.47 0.47 0.47 0.46 0.46 0.49 0.50 0.50 0.49 0.54 0.52 0.51 0.54 0.55 0.52 0.54 0.52 0.57 0.57 0.59 0.56 0.55 0.51 0.49 0.60 0.94 1.27 1.55 1.92 2.14 1.58 1.33 1.07 0.87 0.72 0.61 0.53 0.48 0.45 0.46
0.43 0.49 0.52 0.48 0.46 0.44 0.46 0.47 0.48 0.47 0.46 0.47 0.51 0.55 0.58 0.60 0.59 0.60 0.61 0.63 0.65 0.73 0.70 0.68 0.59 0.57 0.79 1.15 1.38 1.66 1.96 2.46 1.80 1.48 1.17 0.90 0.71 0.61 0.56 0.52 0.47 0.45
0.42 0.45 0.46 0.49 0.46 0.46 0.49 0.50 0.48 0.46 0.51 0.49 0.54 0.56 0.56 0.57 0.52 0.52 0.54 0.55 0.54 0.58 0.64 0.63 0.51 0.56 0.84 1.14 1.35 1.71 2.22 2.08 1.88 1.45 1.14 0.91 0.72 0.61 0.55 0.50 0.46 0.48
0.41 0.43 0.46 0.44 0.45 0.46 0.47 0.48 0.48 0.46 0.46 0.46 0.52 0.48 0.45 0.42 0.43 0.41 0.43 0.49 0.50 0.51 0.53 0.49 0.46 0.50 0.70 1.02 1.21 1.58 2.34 2.40 2.03 1.48 1.11 0.87 0.68 0.58 0.53 0.50 0.46 0.46
0.38 0.42 0.46 0.43 0.44 0.45 0.42 0.40 0.39 0.40 0.42 0.42 0.48 0.46 0.44 0.42 0.41 0.43 0.43 0.44 0.48 0.49 0.48 0.51 0.46 0.44 0.59 0.83 1.06 1.45 1.95 1.99 1.87 1.59 1.17 0.91 0.76 0.64 0.58 0.55 0.46 0.49
0.40 0.39 0.41 0.42 0.42 0.39 0.37 0.38 0.38 0.39 0.40 0.41 0.43 0.42 0.42 0.40 0.41 0.44 0.42 0.42 0.43 0.45 0.47 0.52 0.50 0.45 0.51 0.77 1.05 1.51 1.78 1.87 1.79 1.54 1.30 1.02 0.87 0.77 0.62 0.53 0.45 0.43
0.37 0.37 0.37 0.40 0.41 0.38 0.36 0.37 0.37 0.39 0.37 0.39 0.39 0.37 0.38 0.36 0.37 0.37 0.38 0.39 0.41 0.49 0.52 0.51 0.51 0.49 0.53 0.69 1.06 1.43 1.58 1.61 1.57 1.44 1.34 1.13 0.99 0.84 0.82 0.71 0.56 0.50